Powrót do katalogu

CZ-11 R/B

AktywnyLEO
NORAD 43872·ROCKET BODY·🇨🇳 China

Wystrzelony Dec 21, 2018 z Jiuquan Satellite Launch Center

Loading…

Następne Przeloty (najbliższe 24 godziny)

TLE

ŚwieżeSource: Space-Track

Epoka: Sep 13, 2026, 11:35 UTC

1 43872U 18108B   26256.48276980 -.00000164  00000-0 -41841-4 0  9992
2 43872 100.3624 335.7524 0331259  46.4031 316.4118 14.01888241395279

Śledź CZ-11 R/B w czasie rzeczywistym z AllMySat

Download on the App Store